SCP
-0 -0 -0 -0 -0 -0 -0 -0 0 -0 0 -0 0 0 0 -0 -0 -0 -0 -0 -0 -0 -0 -0 -0 -0 -0 -0 -0 -0 -0 0 -0 -0 -0 0 -0 -0 -0 -0 -0 0 0
-0 -0 -0 -0 -0 -0 -0 0 0 0 0 0 0 0 0 -0 -0 -0 -0 -0 -0 -0 -0 -0 -0 -0 -0 -0 -0 -0 0 -0 -0 -0 -0 0 -0 -0 -0 -0 0 0 0
-0 -0 -0 -0 -0 -0 -0 0 0 0 0 0 0 0 0 0 -0 -0 -0 -0 -0 -0 -0 -0 -0 -0 -0 -0 -0 -0 0 -0 -0 -0 -0 -0 -0 -0 -0 0 0 0 0
0 0 0 -0 -0 -0 -0 0 0 0 0 0 0 0 0 0 -0 -0 -0 -0 -0 -0 -0 0 0 -0 -0 -0 -0 -0 -0 -0 -0 0 -0 0 -0 -0 -0 -0 -0 -0 -0
0 0 0 -0 -0 0 0 0 0 0 0 0 0 0 0 0 -0 -0 -0 -0 -0 -0 -0 0 0 -0 -0 -0 -0 0 -0 -0 -0 -0 -0 0 -0 0 -0 -0 -0 -0 -0
0 0 0 -0 0 0 0 0 0 0 0 0 0 0 0 0 0 0 -0 -0 -0 -0 -0 -0 -0 -0 -0 -0 -0 -0 -0 -0 -0 -0 0 -0 -0 -0 -0 -0 -0 -0 -0
0 0 0 0 0 0 0 0 0 0 0 0 0 0 0 0 0 0 -0 -0 -0 -0 0 -0 -0 0 0 0 -0 -0 0 -0 -0 -0 -0 0 0 -0 -0 -0 -0 -0 0
0 0 0 0 0 0 0 0 0 0 0 0 0 0 0 0 0 0 0 0 0 0 0 0 -0 0 0 0 -0 -0 -0 -0 0 -0 -0 0 0 -0 0 0 -0 0 0
0 0 0 0 0 0 0 0 0 0 0 0 0 0 0 0 0 0 0 0 0 0 0 0 0 0 0 0 0 0 0 -0 0 0 0 0 0 0 0 0 0 0 0
0 0 0 0 0 0 0 0 0 0 0 0 0 0 0 0 0 0 0 0 0 0 0 0 0 0 0 0 0 -0 0 0 0 0 0 0 0 0 0 0 0 0 0
0 0 0 0 0 0 0 0 0 0 0 0 0 0 0 0 0 0 0 0 0 0 0 0 0 0 0 0 -0 0 0 0 0 0 0 0 0 0 0 0 0 0 0
0 0 0 0 0 0 0 0 0 0 0 0 0 0 0 0 0 0 0 0 0 0 0 0 0 0 0 0 0 0 0 0 0 0 0 0 0 0 0 0 0 0 0
0 0 0 0 0 0 0 0 0 0 0 0 0 0 0 0 0 0 0 0 0 0 0 0 0 0 0 0 0 0 0 0 0 0 0 0 0 0 0 0 0 0 0
0 0 0 0 0 0 0 0 0 0 0 0 0 0 0 0 0 0 0 0 0 0 0 0 0 0 0 0 0 0 0 0 0 0 0 0 0 0 0 0 0 0 0
0 0 0 0 0 0 0 0 0 0 0 0 0 0 0 0 0 0 0 0 0 0 0 0 0 0 0 0 0 0 0 0 0 0 0 0 0 0 0 0 0 0 0
0 0 0 0 0 0 0 0 0 0 0 0 0 0 0 0 0 0 0 0 0 0 0 0 0 0 0 0 0 0 0 0 0 0 0 0 0 0 0 0 0 0 0
0 0 0 0 0 0 0 0 0 0 0 0 0 0 0 0 0 0 0 0 0 0 0 0 0 0 0 0 0 0 0 0 0 0 0 0 0 0 0 0 0 0 0
0 0 0 0 0 0 0 0 0 0 0 0 0 0 0 0 0 0 0 0 0 0 0 0 0 0 0 0 0 0 0 0 0 0 0 0 0 0 0 0 0 0 0
0 0 0 0 0 0 0 0 0 0 0 0 0 0 0 0 0 0 0 0 0 0 0 0 0 0 0 0 0 0 0 0 0 0 0 0 0 0 0 0 0 0 0
0 0 0 0 0 0 0 0 0 0 0 0 0 0 0 0 0 0 0 0 0 0 0 0 0 0 0 0 0 0 0 0 0 0 0 0 0 0 0 0 0 0 0
0 0 0 0 0 0 0 0 0 0 0 0 0 0 0 0 0 0 0 0 0 0 0 0 0 0 0 0 0 0 0 0 0 0 0 0 0 0 0 0 0 0 0
0 0 0 0 0 0 0 0 0 0 0 0 0 0 0 0 0 0 0 0 0 0 0 0 0 0 0 0 0 0 0 0 0 0 0 0 0 0 0 0 0 0 0
0 0 0 0 0 0 0 0 0 0 0 0 0 0 0 0 0 0 0 0 0 0 0 0 0 0 0 0 0 0 0 0 0 0 0 0 0 0 0 0 0 0 0
0 0 0 0 0 0 0 0 0 0 0 0 0 0 0 0 0 0 0 0 0 0 0 0 0 0 0 0 0 0 0 0 0 0 0 0 0 0 0 0 0 0 0
0 0 0 0 0 0 0 0 0 0 0 0 0 0 0 0 0 0 0 0 0 0 0 0 0 0 0 0 0 0 0 0 0 0 0 0 0 0 0 0 0 0 0
0 0 0 0 0 0 0 0 0 0 0 0 0 0 0 0 0 0 0 0 0 0 0 0 0 0 0 0 0 0 0 0 0 0 0 0 0 0 0 0 0 0 0
Wind_Speed_500mb
41 63 55 49 44 40 37 32 29 27 29 34 40 36 37 33 29 26 27 30 29 28 27 26 26 27 28 28 29 29 28 28 28 30 30 28 25 24 27 27 25 22 22
49 64 57 50 43 39 34 32 29 28 32 37 38 35 33 31 30 28 29 31 29 27 26 26 26 25 26 26 25 25 25 25 28 31 32 32 23 26 28 27 25 25 23
45 64 58 50 43 36 34 35 30 30 33 38 38 31 32 32 36 34 34 31 29 27 26 26 26 24 23 22 21 22 23 26 32 38 30 21 19 23 24 27 27 26 27
48 64 59 50 43 37 36 33 31 31 33 37 37 34 33 37 42 40 35 30 28 27 25 24 23 21 19 20 21 22 25 31 32 23 19 11 15 21 24 26 26 26 25
47 61 58 52 44 40 38 34 33 34 39 37 37 36 33 39 38 36 33 29 27 25 24 21 20 19 18 18 20 22 28 35 30 22 11 14 16 22 22 25 27 27 24
43 55 55 52 45 43 39 34 33 34 38 40 37 36 35 37 36 34 29 29 27 24 21 18 17 17 16 16 18 21 33 30 24 10 15 17 23 22 26 26 22 16 12
43 50 50 53 47 44 39 35 33 33 37 39 38 38 37 37 35 31 28 27 25 22 19 16 15 14 13 15 18 21 29 29 19 14 11 16 22 21 19 15 15 9 6
50 51 47 53 48 45 40 36 31 32 35 40 37 36 38 37 34 29 27 26 24 20 17 17 17 13 10 12 18 29 29 21 14 12 6 19 13 11 10 9 3 4 12
51 55 50 56 52 45 41 36 32 32 34 38 39 37 36 37 33 29 27 26 23 19 17 16 14 8 8 9 15 25 25 20 16 10 6 5 7 9 19 12 3 6 17
52 54 52 59 56 51 44 38 33 30 33 39 38 39 38 36 33 28 26 24 22 19 16 14 10 9 11 15 21 31 22 12 10 7 6 7 4 16 18 8 6 12 17
51 54 53 60 59 55 47 42 36 32 33 38 39 37 36 34 32 29 28 24 20 17 13 10 10 10 11 18 30 30 14 10 9 10 8 5 12 15 15 6 5 11 15
61 62 54 56 60 56 50 47 42 38 36 37 38 38 35 32 30 29 26 23 19 15 8 11 10 10 14 18 32 25 13 13 17 15 16 4 9 12 12 4 7 13 10
64 66 58 56 56 56 55 51 49 43 39 39 40 41 37 26 32 30 25 24 19 12 7 10 10 11 19 13 22 23 20 14 12 15 14 7 7 14 6 13 9 3 10
69 65 60 57 55 56 57 57 52 47 39 39 40 42 39 36 35 30 24 22 12 10 14 13 10 9 15 19 22 23 25 19 12 15 14 9 9 10 8 15 8 13 15
78 71 69 62 59 63 56 55 55 52 43 35 41 47 43 41 31 29 20 21 22 19 19 18 12 11 15 22 24 25 28 22 10 12 10 12 13 19 20 19 17 15 14
78 75 78 72 59 62 64 63 59 57 50 44 43 48 45 38 32 32 36 34 32 26 22 18 13 13 19 21 24 25 26 24 16 12 14 16 18 21 27 25 22 18 25
69 70 74 77 68 63 65 64 63 57 50 47 43 45 45 38 34 38 38 37 32 32 22 16 16 20 20 21 21 21 23 24 20 15 18 21 23 24 25 26 27 29 28
71 69 72 76 74 70 64 62 69 56 51 47 45 43 49 46 36 47 42 42 32 28 24 21 21 24 22 22 23 23 23 23 23 23 23 22 26 25 27 29 29 28 28
72 71 67 73 68 69 69 61 68 63 59 50 48 44 40 45 44 46 43 39 34 30 26 23 24 26 27 26 24 23 22 23 25 27 28 27 29 26 28 29 29 28 27
68 74 72 77 77 71 61 58 68 65 58 52 47 45 46 47 50 46 45 43 38 32 28 28 29 31 30 28 26 24 24 26 28 28 30 31 32 32 31 30 30 28 26
73 74 76 75 83 83 81 72 73 70 60 52 49 51 48 53 51 51 48 41 39 35 32 35 33 36 36 35 29 27 25 26 30 32 33 34 33 35 34 33 33 29 26
70 69 77 80 76 84 84 78 76 71 62 59 58 58 55 55 54 52 47 43 39 38 38 39 40 41 41 36 31 23 16 25 32 35 37 38 36 36 36 36 33 32 31
74 74 78 77 78 85 80 78 74 73 66 68 69 63 65 59 57 53 48 44 40 40 40 40 41 43 42 36 40 22 13 17 15 25 30 32 37 37 38 39 36 34 35
73 75 77 78 74 77 84 82 88 90 86 80 75 68 64 58 57 56 51 45 42 41 43 43 42 43 41 39 42 42 34 26 17 14 23 26 32 36 40 41 39 38 38
70 75 80 87 81 83 76 86 83 86 89 85 81 74 68 61 59 59 54 47 47 45 45 45 44 44 45 42 40 39 44 43 39 36 35 36 36 36 37 40 41 42 42
71 65 76 79 88 88 79 84 88 84 87 84 84 80 70 65 64 62 57 52 53 50 49 46 43 45 47 45 43 39 37 31 30 32 38 43 49 46 41 39 41 43 45
Wind_Direction_500mb
190 172 172 171 171 170 167 171 174 172 163 158 158 161 161 162 153 143 137 134 128 119 114 110 105 102 98 94 90 90 87 83 80 76 69 65 59 48 65 55 49 49 52
184 174 174 171 173 170 166 166 173 170 165 160 162 163 164 166 168 157 146 138 127 122 115 109 104 99 96 93 91 87 83 78 73 67 54 44 42 56 47 39 39 44 45
183 176 174 174 171 168 164 162 167 168 167 163 163 153 167 172 165 162 149 138 131 124 118 112 105 100 95 92 89 85 78 76 76 70 67 40 31 42 36 38 49 56 60
181 175 174 175 171 167 163 162 162 166 160 156 154 149 151 154 155 153 146 139 132 123 119 114 110 102 92 87 88 84 80 78 71 70 73 71 25 47 45 50 72 67 69
187 175 175 174 170 166 164 163 160 164 158 156 155 154 152 152 152 148 146 139 129 127 124 120 114 101 90 87 85 83 84 83 73 66 76 89 64 50 57 58 75 85 85
180 178 177 173 169 167 166 165 160 164 162 156 161 156 159 155 152 152 149 140 133 131 129 123 111 100 92 88 86 85 95 85 87 93 76 68 63 66 70 79 81 85 81
175 181 185 174 170 169 168 166 163 165 167 164 161 165 160 160 158 157 147 141 135 139 133 124 110 95 89 90 86 84 111 101 104 99 88 77 80 86 75 81 80 72 8
181 182 190 178 173 171 170 167 166 165 168 165 167 166 167 164 161 158 151 145 143 146 136 122 102 92 83 87 91 99 108 114 112 116 83 98 89 57 59 85 56 316 311
182 185 193 181 177 176 175 171 168 168 169 169 169 168 170 169 164 162 159 152 151 152 142 125 114 108 81 88 102 115 114 126 136 124 103 82 25 16 87 100 87 25 38
189 193 192 180 180 180 179 176 172 171 171 171 173 174 174 172 166 166 164 158 161 160 151 131 125 85 93 89 107 115 138 138 152 160 150 114 17 70 92 101 44 68 35
192 188 185 182 184 184 184 179 178 175 175 173 176 176 177 172 170 171 171 167 170 163 151 129 116 86 88 104 115 114 146 141 156 144 142 92 58 78 85 102 95 74 10
190 177 187 185 186 186 189 185 183 179 179 182 179 178 176 175 177 180 178 176 174 167 154 136 128 109 106 104 126 116 164 182 163 167 146 155 42 85 88 119 126 94 28
187 177 185 189 189 191 191 191 189 183 183 187 186 179 174 182 184 188 185 183 176 173 157 162 160 152 139 169 141 151 205 195 217 193 164 160 80 98 119 149 201 156 341
187 181 184 186 187 198 198 197 193 189 186 188 190 180 167 199 196 189 184 179 163 165 183 173 194 186 184 183 174 181 191 223 222 184 163 178 128 124 144 165 222 285 308
186 186 178 184 191 198 206 205 195 198 197 196 194 183 182 198 190 173 184 182 188 197 198 222 210 210 191 190 189 186 184 226 206 203 202 189 168 142 154 189 231 262 303
196 199 186 178 196 200 204 206 201 201 200 199 199 192 192 188 188 175 194 193 190 201 208 214 224 216 205 201 196 194 194 211 226 208 213 216 221 215 212 225 251 276 297
203 204 200 185 188 202 206 208 199 198 201 199 204 199 189 183 193 195 202 203 194 199 209 225 228 223 216 211 208 203 202 206 228 224 219 224 230 241 249 260 269 283 288
200 202 200 193 197 206 208 207 199 196 206 198 201 201 195 190 191 204 204 206 202 207 224 227 228 227 222 215 213 210 212 216 220 231 245 238 242 252 257 266 276 282 287
204 199 200 192 198 202 208 204 197 202 213 206 203 201 201 193 205 209 206 217 210 208 223 232 226 227 222 219 217 220 222 224 228 234 247 258 263 259 263 269 276 280 285
208 203 206 202 197 195 193 208 201 208 210 207 202 191 194 200 207 208 214 218 215 213 226 237 233 226 226 225 224 222 224 227 240 248 252 257 262 269 269 273 280 282 287
206 205 206 203 207 207 205 203 204 207 206 204 203 201 201 210 211 212 219 216 218 224 234 240 236 229 222 224 221 219 227 236 245 257 261 264 266 267 272 277 280 281 286
204 209 205 210 213 213 211 209 209 208 207 201 203 202 207 211 215 221 218 218 217 229 234 240 239 229 226 225 222 224 229 243 249 257 266 272 270 271 273 276 278 282 288
203 209 206 209 213 216 212 210 212 215 211 207 209 210 209 212 220 216 218 221 224 234 236 243 241 234 232 227 225 217 209 227 244 262 269 271 276 278 277 275 277 280 283
204 203 204 210 213 217 215 211 214 216 215 216 221 218 218 220 216 216 217 220 226 234 239 241 239 235 233 234 227 231 236 248 241 258 270 273 280 283 280 278 277 278 281
214 208 209 210 210 215 215 212 216 219 223 228 227 227 221 217 214 216 218 219 228 235 238 240 237 231 235 237 235 238 241 247 251 255 276 284 277 288 285 282 283 282 283
212 214 213 213 211 215 216 214 222 220 225 228 227 226 220 218 215 215 219 224 229 237 238 238 235 231 235 237 236 240 248 254 257 254 254 262 279 283 286 284 287 287 286
Wind_Speed_850mb
41 63 55 49 44 40 37 32 29 27 29 34 40 36 37 33 29 26 27 30 29 28 27 26 26 27 28 28 29 29 28 28 28 30 30 28 25 24 27 27 25 22 22
49 64 57 50 43 39 34 32 29 28 32 37 38 35 33 31 30 28 29 31 29 27 26 26 26 25 26 26 25 25 25 25 28 31 32 32 23 26 28 27 25 25 23
45 64 58 50 43 36 34 35 30 30 33 38 38 31 32 32 36 34 34 31 29 27 26 26 26 24 23 22 21 22 23 26 32 38 30 21 19 23 24 27 27 26 27
48 64 59 50 43 37 36 33 31 31 33 37 37 34 33 37 42 40 35 30 28 27 25 24 23 21 19 20 21 22 25 31 32 23 19 11 15 21 24 26 26 26 25
47 61 58 52 44 40 38 34 33 34 39 37 37 36 33 39 38 36 33 29 27 25 24 21 20 19 18 18 20 22 28 35 30 22 11 14 16 22 22 25 27 27 24
43 55 55 52 45 43 39 34 33 34 38 40 37 36 35 37 36 34 29 29 27 24 21 18 17 17 16 16 18 21 33 30 24 10 15 17 23 22 26 26 22 16 12
43 50 50 53 47 44 39 35 33 33 37 39 38 38 37 37 35 31 28 27 25 22 19 16 15 14 13 15 18 21 29 29 19 14 11 16 22 21 19 15 15 9 6
50 51 47 53 48 45 40 36 31 32 35 40 37 36 38 37 34 29 27 26 24 20 17 17 17 13 10 12 18 29 29 21 14 12 6 19 13 11 10 9 3 4 12
51 55 50 56 52 45 41 36 32 32 34 38 39 37 36 37 33 29 27 26 23 19 17 16 14 8 8 9 15 25 25 20 16 10 6 5 7 9 19 12 3 6 17
52 54 52 59 56 51 44 38 33 30 33 39 38 39 38 36 33 28 26 24 22 19 16 14 10 9 11 15 21 31 22 12 10 7 6 7 4 16 18 8 6 12 17
51 54 53 60 59 55 47 42 36 32 33 38 39 37 36 34 32 29 28 24 20 17 13 10 10 10 11 18 30 30 14 10 9 10 8 5 12 15 15 6 5 11 15
61 62 54 56 60 56 50 47 42 38 36 37 38 38 35 32 30 29 26 23 19 15 8 11 10 10 14 18 32 25 13 13 17 15 16 4 9 12 12 4 7 13 10
64 66 58 56 56 56 55 51 49 43 39 39 40 41 37 26 32 30 25 24 19 12 7 10 10 11 19 13 22 23 20 14 12 15 14 7 7 14 6 13 9 3 10
69 65 60 57 55 56 57 57 52 47 39 39 40 42 39 36 35 30 24 22 12 10 14 13 10 9 15 19 22 23 25 19 12 15 14 9 9 10 8 15 8 13 15
78 71 69 62 59 63 56 55 55 52 43 35 41 47 43 41 31 29 20 21 22 19 19 18 12 11 15 22 24 25 28 22 10 12 10 12 13 19 20 19 17 15 14
78 75 78 72 59 62 64 63 59 57 50 44 43 48 45 38 32 32 36 34 32 26 22 18 13 13 19 21 24 25 26 24 16 12 14 16 18 21 27 25 22 18 25
69 70 74 77 68 63 65 64 63 57 50 47 43 45 45 38 34 38 38 37 32 32 22 16 16 20 20 21 21 21 23 24 20 15 18 21 23 24 25 26 27 29 28
71 69 72 76 74 70 64 62 69 56 51 47 45 43 49 46 36 47 42 42 32 28 24 21 21 24 22 22 23 23 23 23 23 23 23 22 26 25 27 29 29 28 28
72 71 67 73 68 69 69 61 68 63 59 50 48 44 40 45 44 46 43 39 34 30 26 23 24 26 27 26 24 23 22 23 25 27 28 27 29 26 28 29 29 28 27
68 74 72 77 77 71 61 58 68 65 58 52 47 45 46 47 50 46 45 43 38 32 28 28 29 31 30 28 26 24 24 26 28 28 30 31 32 32 31 30 30 28 26
73 74 76 75 83 83 81 72 73 70 60 52 49 51 48 53 51 51 48 41 39 35 32 35 33 36 36 35 29 27 25 26 30 32 33 34 33 35 34 33 33 29 26
70 69 77 80 76 84 84 78 76 71 62 59 58 58 55 55 54 52 47 43 39 38 38 39 40 41 41 36 31 23 16 25 32 35 37 38 36 36 36 36 33 32 31
74 74 78 77 78 85 80 78 74 73 66 68 69 63 65 59 57 53 48 44 40 40 40 40 41 43 42 36 40 22 13 17 15 25 30 32 37 37 38 39 36 34 35
73 75 77 78 74 77 84 82 88 90 86 80 75 68 64 58 57 56 51 45 42 41 43 43 42 43 41 39 42 42 34 26 17 14 23 26 32 36 40 41 39 38 38
70 75 80 87 81 83 76 86 83 86 89 85 81 74 68 61 59 59 54 47 47 45 45 45 44 44 45 42 40 39 44 43 39 36 35 36 36 36 37 40 41 42 42
71 65 76 79 88 88 79 84 88 84 87 84 84 80 70 65 64 62 57 52 53 50 49 46 43 45 47 45 43 39 37 31 30 32 38 43 49 46 41 39 41 43 45
Wind_Direction_850mb
190 172 172 171 171 170 167 171 174 172 163 158 158 161 161 162 153 143 137 134 128 119 114 110 105 102 98 94 90 90 87 83 80 76 69 65 59 48 65 55 49 49 52
184 174 174 171 173 170 166 166 173 170 165 160 162 163 164 166 168 157 146 138 127 122 115 109 104 99 96 93 91 87 83 78 73 67 54 44 42 56 47 39 39 44 45
183 176 174 174 171 168 164 162 167 168 167 163 163 153 167 172 165 162 149 138 131 124 118 112 105 100 95 92 89 85 78 76 76 70 67 40 31 42 36 38 49 56 60
181 175 174 175 171 167 163 162 162 166 160 156 154 149 151 154 155 153 146 139 132 123 119 114 110 102 92 87 88 84 80 78 71 70 73 71 25 47 45 50 72 67 69
187 175 175 174 170 166 164 163 160 164 158 156 155 154 152 152 152 148 146 139 129 127 124 120 114 101 90 87 85 83 84 83 73 66 76 89 64 50 57 58 75 85 85
180 178 177 173 169 167 166 165 160 164 162 156 161 156 159 155 152 152 149 140 133 131 129 123 111 100 92 88 86 85 95 85 87 93 76 68 63 66 70 79 81 85 81
175 181 185 174 170 169 168 166 163 165 167 164 161 165 160 160 158 157 147 141 135 139 133 124 110 95 89 90 86 84 111 101 104 99 88 77 80 86 75 81 80 72 8
181 182 190 178 173 171 170 167 166 165 168 165 167 166 167 164 161 158 151 145 143 146 136 122 102 92 83 87 91 99 108 114 112 116 83 98 89 57 59 85 56 316 311
182 185 193 181 177 176 175 171 168 168 169 169 169 168 170 169 164 162 159 152 151 152 142 125 114 108 81 88 102 115 114 126 136 124 103 82 25 16 87 100 87 25 38
189 193 192 180 180 180 179 176 172 171 171 171 173 174 174 172 166 166 164 158 161 160 151 131 125 85 93 89 107 115 138 138 152 160 150 114 17 70 92 101 44 68 35
192 188 185 182 184 184 184 179 178 175 175 173 176 176 177 172 170 171 171 167 170 163 151 129 116 86 88 104 115 114 146 141 156 144 142 92 58 78 85 102 95 74 10
190 177 187 185 186 186 189 185 183 179 179 182 179 178 176 175 177 180 178 176 174 167 154 136 128 109 106 104 126 116 164 182 163 167 146 155 42 85 88 119 126 94 28
187 177 185 189 189 191 191 191 189 183 183 187 186 179 174 182 184 188 185 183 176 173 157 162 160 152 139 169 141 151 205 195 217 193 164 160 80 98 119 149 201 156 341
187 181 184 186 187 198 198 197 193 189 186 188 190 180 167 199 196 189 184 179 163 165 183 173 194 186 184 183 174 181 191 223 222 184 163 178 128 124 144 165 222 285 308
186 186 178 184 191 198 206 205 195 198 197 196 194 183 182 198 190 173 184 182 188 197 198 222 210 210 191 190 189 186 184 226 206 203 202 189 168 142 154 189 231 262 303
196 199 186 178 196 200 204 206 201 201 200 199 199 192 192 188 188 175 194 193 190 201 208 214 224 216 205 201 196 194 194 211 226 208 213 216 221 215 212 225 251 276 297
203 204 200 185 188 202 206 208 199 198 201 199 204 199 189 183 193 195 202 203 194 199 209 225 228 223 216 211 208 203 202 206 228 224 219 224 230 241 249 260 269 283 288
200 202 200 193 197 206 208 207 199 196 206 198 201 201 195 190 191 204 204 206 202 207 224 227 228 227 222 215 213 210 212 216 220 231 245 238 242 252 257 266 276 282 287
204 199 200 192 198 202 208 204 197 202 213 206 203 201 201 193 205 209 206 217 210 208 223 232 226 227 222 219 217 220 222 224 228 234 247 258 263 259 263 269 276 280 285
208 203 206 202 197 195 193 208 201 208 210 207 202 191 194 200 207 208 214 218 215 213 226 237 233 226 226 225 224 222 224 227 240 248 252 257 262 269 269 273 280 282 287
206 205 206 203 207 207 205 203 204 207 206 204 203 201 201 210 211 212 219 216 218 224 234 240 236 229 222 224 221 219 227 236 245 257 261 264 266 267 272 277 280 281 286
204 209 205 210 213 213 211 209 209 208 207 201 203 202 207 211 215 221 218 218 217 229 234 240 239 229 226 225 222 224 229 243 249 257 266 272 270 271 273 276 278 282 288
203 209 206 209 213 216 212 210 212 215 211 207 209 210 209 212 220 216 218 221 224 234 236 243 241 234 232 227 225 217 209 227 244 262 269 271 276 278 277 275 277 280 283
204 203 204 210 213 217 215 211 214 216 215 216 221 218 218 220 216 216 217 220 226 234 239 241 239 235 233 234 227 231 236 248 241 258 270 273 280 283 280 278 277 278 281
214 208 209 210 210 215 215 212 216 219 223 228 227 227 221 217 214 216 218 219 228 235 238 240 237 231 235 237 235 238 241 247 251 255 276 284 277 288 285 282 283 282 283
212 214 213 213 211 215 216 214 222 220 225 228 227 226 220 218 215 215 219 224 229 237 238 238 235 231 235 237 236 240 248 254 257 254 254 262 279 283 286 284 287 287 286